GW2092 Weather Reports


time (UTC)temp
C
wind
direction
speed
KPH
gust
KPH
rain 1hr
cm
rain 24hr
cm
rain mn
cm
humidity
%
barometer
mb
20260509184545 29 192 0.0 1.6 0.00 0.03 0.03 43 1012.0
20260509183047 29 0 0.0 3.2 0.00 0.03 0.03 44 1011.9
20260509181605 29 0 0.0 1.6 0.00 0.03 0.03 41 1012.1
20260509180109 28 148 0.0 1.6 0.00 0.03 0.03 45 1012.2
20260509174543 27 0 0.0 4.8 0.00 0.03 0.03 46 1012.3
20260509173052 27 0 0.0 3.2 0.00 0.03 0.03 45 1012.3
20260509171552 28 0 0.0 3.2 0.00 0.03 0.03 47 1012.3
20260509170050 27 0 0.0 3.2 0.00 0.03 0.03 51 1012.5
20260509164543 27 0 0.0 6.4 0.00 0.03 0.03 53 1012.3
20260509163043 26 130 0.0 4.8 0.00 0.03 0.03 56 1012.3
20260509161559 26 223 0.0 3.2 0.00 0.03 0.03 58 1012.3
20260509160047 25 179 0.0 6.4 0.00 0.03 0.03 62 1012.3
20260509154545 25 143 0.0 4.8 0.00 0.03 0.03 64 1012.2
20260509153051 24 119 0.0 1.6 0.00 0.03 0.03 65 1012.1
20260509151551 23 0 0.0 3.2 0.00 0.03 0.03 67 1012.2
20260509150043 23 205 0.0 1.6 0.00 0.03 0.03 67 1012.2
20260509144549 22 0 0.0 3.2 0.00 0.03 0.03 70 1012.1
20260509143100 21 227 0.0 1.6 0.00 0.03 0.03 71 1012.2
20260509141558 20 187 0.0 3.2 0.00 0.03 0.03 75 1012.2
20260509140045 18 0 0.0 4.8 0.00 0.03 0.03 77 1012.1
20260509134550 18 233 0.0 3.2 0.00 0.03 0.03 79 1011.9
20260509133057 17 0 0.0 1.6 0.00 0.03 0.03 82 1011.7
20260509131543 16 0 0.0 1.6 0.00 0.03 0.03 87 1011.7
20260509130049 14 130 0.0 1.6 0.00 0.03 0.03 90 1011.6
20260509124549 14 0 0.0 1.6 0.00 0.03 0.03 94 1011.5
20260509123043 13 0 0.0 0.0 0.00 0.03 0.03 97 1011.3
20260509121551 12 0 0.0 0.0 0.00 0.03 0.03 97 1011.2
20260509120040 10 0 0.0 0.0 0.00 0.03 0.03 97 1011.0
20260509114537 8 0 0.0 0.0 0.00 0.03 0.03 97 1011.0
20260509113039 8 0 0.0 0.0 0.00 0.03 0.03 96 1010.7
20260509111543 8 0 0.0 0.0 0.00 0.03 0.03 96 1010.8
20260509110047 9 0 0.0 0.0 0.00 0.03 0.03 96 1010.8
20260509104559 9 0 0.0 0.0 0.00 0.03 0.03 97 1010.7
20260509103041 9 0 0.0 0.0 0.00 0.03 0.03 97 1010.8
20260509101544 9 0 0.0 0.0 0.00 0.03 0.03 96 1010.7
20260509100037 9 0 0.0 0.0 0.00 0.03 0.03 95 1010.7
20260509094546 10 0 0.0 0.0 0.00 0.03 0.03 96 1010.8
20260509093045 10 0 0.0 0.0 0.00 0.03 0.03 96 1011.0
20260509091544 10 0 0.0 0.0 0.00 0.03 0.03 95 1010.8
20260509090055 10 0 0.0 0.0 0.00 0.03 0.03 95 1011.1
20260509084547 10 0 0.0 0.0 0.03 0.03 0.03 96 1011.2
20260509083047 10 0 0.0 0.0 0.03 0.03 0.03 94 1011.3
20260509081551 10 0 0.0 0.0 0.03 0.03 0.03 94 1011.1
20260509080044 11 0 0.0 0.0 0.03 0.03 0.03 94 1011.1
20260509074540 11 0 0.0 0.0 0.00 0.00 0.00 94 1010.9
20260509073050 11 0 0.0 0.0 0.00 0.00 0.00 94 1011.1
20260509071547 11 0 0.0 0.0 0.00 0.00 0.00 93 1011.0
20260509070053 11 0 0.0 0.0 0.00 0.00 0.00 93 1011.1
20260509064544 11 0 0.0 0.0 0.00 0.00 0.00 92 1011.1
20260509063102 11 0 0.0 0.0 0.00 0.00 0.00 91 1011.2
20260509061613 12 0 0.0 0.0 0.00 0.00 0.00 91 1011.3
20260509060053 11 0 0.0 0.0 0.00 0.00 0.00 90 1011.4
20260509054538 12 0 0.0 0.0 0.00 0.00 0.00 89 1011.4
20260509053045 12 0 0.0 0.0 0.00 0.00 0.00 87 1011.5
20260509051543 13 0 0.0 0.0 0.00 0.00 0.00 87 1011.5
20260509050046 13 0 0.0 0.0 0.00 0.00 0.00 87 1011.5
20260509044541 12 0 0.0 0.0 0.00 0.00 0.00 87 1011.4
20260509043038 13 0 0.0 0.0 0.00 0.00 0.00 84 1011.3
20260509041543 13 0 0.0 0.0 0.00 0.00 0.00 83 1011.4
20260509040048 14 0 0.0 0.0 0.00 0.00 0.00 81 1011.4
20260509034543 15 0 0.0 0.0 0.00 0.00 0.00 79 1011.3
20260509033043 15 0 0.0 0.0 0.00 0.00 0.00 76 1011.1
20260509031542 16 0 0.0 1.6 0.00 0.00 0.00 73 1010.9
20260509030041 16 0 0.0 0.0 0.00 0.00 0.00 71 1010.6
20260509024545 16 0 0.0 6.4 0.00 0.00 0.00 70 1010.5
20260509023043 16 0 0.0 1.6 0.00 0.00 0.00 73 1010.0
20260509021544 16 0 0.0 0.0 0.00 0.00 0.00 75 1009.4
20260509020050 16 0 0.0 0.0 0.00 0.00 0.00 74 1009.0
20260509014546 16 0 0.0 0.0 0.00 0.00 0.00 72 1008.5
20260509013040 17 0 0.0 0.0 0.00 0.00 0.00 74 1008.0
20260509011545 17 0 0.0 0.0 0.00 0.00 0.00 74 1007.8
20260509010046 18 0 0.0 1.6 0.00 0.00 0.00 70 1007.8
20260509004544 18 0 0.0 1.6 0.00 0.00 0.00 69 1008.4
20260509003048 19 0 0.0 6.4 0.00 0.00 0.00 63 1009.0
20260509001544 19 7 0.0 6.4 0.00 0.00 0.00 60 1007.7
20260509000038 19 131 0.0 14.5 0.00 0.00 0.00 66 1007.1
20260508234550 19 0 1.6 6.4 0.00 0.00 0.00 67 1007.4
20260508233047 20 0 0.0 1.6 0.00 0.00 0.00 71 1008.0
20260508231538 21 0 0.0 1.6 0.00 0.00 0.00 66 1009.0
20260508230045 21 0 0.0 1.6 0.00 0.00 0.00 63 1008.3
20260508224543 23 0 0.0 1.6 0.00 0.00 0.00 58 1008.8
20260508223048 23 0 0.0 6.4 0.00 0.00 0.00 52 1009.6
20260508221542 24 0 0.0 6.4 0.00 0.00 0.00 51 1009.6
20260508220050 25 0 0.0 9.7 0.00 0.00 0.00 47 1009.2
20260508214547 26 150 0.0 8.0 0.00 0.00 0.00 46 1008.7
20260508213045 26 0 0.0 3.2 0.00 0.00 0.00 45 1008.9
20260508211539 26 271 0.0 6.4 0.00 0.00 0.00 45 1008.9
20260508210050 26 319 0.0 9.7 0.00 0.00 0.00 44 1009.2
20260508204544 27 191 1.6 14.5 0.00 0.00 0.00 43 1009.2
20260508203108 26 231 1.6 11.3 0.00 0.00 0.00 42 1009.2
20260508201559 26 0 1.6 9.7 0.00 0.00 0.00 43 1009.7
20260508200038 26 0 1.6 9.7 0.00 0.00 0.00 44 1009.9
20260508194545 26 0 0.0 9.7 0.00 0.00 0.00 44 1010.0
20260508193046 26 200 0.0 11.3 0.00 0.00 0.00 46 1010.1
20260508191543 25 228 1.6 9.7 0.00 0.00 0.00 48 1010.4
20260508190041 25 145 1.6 8.0 0.00 0.00 0.00 50 1010.7